This demonstration page uses our WeatherBlox Daily Observations layout. Learn more.

Left ArrowRight Arrow

Hourly Observations for October 22, 2015

Temp ( °F °C ) Dew Point ( °F °C ) Humidity (%) Winds ( mph kmh ) Pressure ( in mb ) Visibility ( mi km ) Precip ( " mm )
12:15 am 00:15 Cloudy 54 12.1 42 5.8 66 66 Calm 30.21 1023 10 16 N/A
12:35 am 00:35 Cloudy 54 12 43 6.1 67 67 Calm 30.21 1023 10 16 N/A
12:55 am 00:55 Cloudy 54 12.1 42 5.4 64 64 E 5 7 30.21 1023 10 16 N/A
1:15 am 01:15 Cloudy 54 12 43 6 67 67 NE 3 6 30.21 1023 10 16 N/A
1:35 am 01:35 Cloudy 53 11.8 42 5.6 66 66 NE 5 7 30.18 1022 10 16 N/A
1:55 am 01:55 Cloudy 53 11.5 41 5.1 65 65 ENE 7 11 30.15 1021 10 16 N/A
2:15 am 02:15 Mostly Cloudy 52 11.1 41 5.1 67 67 ENE 7 11 30.18 1022 10 16 N/A
2:35 am 02:35 Partly Cloudy 51 10.4 41 5 69 69 ENE 6 9 30.18 1022 10 16 N/A
2:55 am 02:55 Mostly Cloudy 52 11 41 5.2 68 68 E 6 9 30.21 1023 10 16 N/A
3:15 am 03:15 Cloudy 52 11 42 5.3 68 68 E 7 11 30.21 1023 10 16 N/A
3:35 am 03:35 Cloudy 51 10.6 42 5.3 70 70 ENE 5 7 30.21 1023 10 16 N/A
3:55 am 03:55 Cloudy 51 10.6 42 5.6 71 71 ENE 3 6 30.21 1023 10 16 N/A
4:15 am 04:15 Cloudy 51 10.6 42 5.7 72 72 E 6 9 30.21 1023 10 16 N/A
4:35 am 04:35 Cloudy 51 10.6 42 5.7 72 72 ENE 3 6 30.21 1023 10 16 N/A
4:55 am 04:55 Cloudy 51 10.6 42 5.7 72 72 E 7 11 30.21 1023 10 16 N/A
5:15 am 05:15 Cloudy 51 10.7 42 5.5 71 71 E 6 9 30.21 1023 10 16 N/A
5:35 am 05:35 Cloudy 51 10.7 42 5.5 71 71 E 7 11 30.21 1023 10 16 N/A
5:55 am 05:55 Cloudy 51 10.8 42 5.4 70 70 E 6 9 30.21 1023 10 16 N/A
6:15 am 06:15 Cloudy 52 10.9 42 5.3 69 69 E 6 9 30.21 1023 10 16 N/A
6:35 am 06:35 Cloudy 51 10.7 42 5.4 70 70 E 7 11 30.18 1022 10 16 N/A
6:55 am 06:55 Cloudy 51 10.7 42 5.4 70 70 E 6 9 30.18 1022 10 16 N/A
7:15 am 07:15 Cloudy 51 10.6 42 5.3 70 70 E 8 13 30.18 1022 10 16 N/A
7:35 am 07:35 Cloudy 51 10.7 42 5.5 71 71 E 8 13 30.18 1022 10 16 N/A
7:55 am 07:55 Cloudy 51 10.8 42 5.5 70 70 E 7 11 30.18 1022 10 16 N/A
8:15 am 08:15 Cloudy 51 10.7 42 5.6 71 71 E 7 11 30.18 1022 10 16 N/A
8:35 am 08:35 Cloudy 51 10.6 43 5.9 73 73 E 10 17 30.18 1022 10 16 N/A
8:55 am 08:55 Cloudy with Light Rain 50 10 44 6.9 81 81 E 9 15 30.18 1022 10 16 N/A
9:15 am 09:15 Cloudy with Rain 50 9.8 45 7.3 85 85 ENE 7 11 30.18 1022 10 16 N/A
9:35 am 09:35 Cloudy 49 9.5 46 7.5 87 87 E 10 17 30.18 1022 7 11 0.02 0.51
9:55 am 09:55 Cloudy 49 9.5 46 8 90 90 E 10 17 30.15 1021 10 16 0.02 0.51
10:15 am 10:15 Cloudy with Light Rain 49 9.7 47 8.1 90 90 E 12 19 30.18 1022 10 16 N/A
10:35 am 10:35 Cloudy with Light Rain 49 9.7 47 8.3 91 91 E 12 19 30.15 1021 7 11 N/A
10:55 am 10:55 Cloudy with Light Rain 49 9.7 47 8.5 92 92 E 13 20 30.15 1021 5 8 0.02 0.51
11:15 am 11:15 Cloudy with Rain 49 9.6 47 8.5 93 93 ENE 9 15 30.12 1020 5 8 0.03 0.76
11:35 am 11:35 Cloudy with Light Rain 50 9.8 48 8.8 94 94 E 10 17 30.12 1020 7 11 0.06 1.52
11:55 am 11:55 Cloudy with Heavy Rain 50 10 48 9 94 94 E 10 17 30.12 1020 3 5 0.13 3.30
12:15 pm 12:15 Cloudy with Light Rain 50 10.1 49 9.2 94 94 E 10 17 30.12 1020 4 6 0.05 1.27
12:35 pm 12:35 Cloudy with Light Rain 51 10.5 49 9.7 95 95 E 14 22 30.06 1018 5 8 0.08 2.03
12:55 pm 12:55 Cloudy with Drizzle 51 10.6 50 9.8 95 95 E 15 24 30.06 1018 7 11 0.08 2.03
1:15 pm 13:15 Cloudy with Heavy Rain 51 10.8 50 10 95 95 E 10 17 30.03 1017 4 6 0.07 1.78
1:35 pm 13:35 Cloudy with Light Rain 52 11 50 10.2 95 95 E 13 20 30.03 1017 4 6 0.09 2.29
1:55 pm 13:55 Cloudy with Light Rain 53 11.5 51 10.6 94 94 E 14 22 30.03 1017 3 5 0.13 3.30
2:15 pm 14:15 Cloudy with Light Rain 53 11.6 52 10.9 96 96 E 16 26 30.00 1016 4 6 0.01 0.25
2:35 pm 14:35 Cloudy with Light Rain 54 12 52 11.2 95 95 E 15 24 30.00 1016 3 5 0.02 0.51
2:55 pm 14:55 Cloudy with Drizzle 54 12.1 53 11.5 96 96 E 13 20 29.97 1015 3 4 0.03 0.76
3:15 pm 15:15 Cloudy with Rain 54 12.2 53 11.5 96 96 E 15 24 29.97 1015 2 2 0.10 2.54
3:35 pm 15:35 Cloudy with Rain 55 12.6 54 12 96 96 E 17 28 29.91 1013 2 3 0.13 3.30
3:55 pm 15:55 Cloudy with Light Rain 55 12.9 54 12.3 96 96 ESE 14 22 29.91 1013 2 3 0.15 3.81
4:15 pm 16:15 Cloudy with Light Rain 56 13.5 55 12.8 96 96 ESE 15 24 29.91 1013 2 3 0.02 0.51
4:35 pm 16:35 Cloudy with Light Rain 56 13.6 55 13 96 96 ESE 7 11 29.94 1014 2 3 0.05 1.27
4:55 pm 16:55 Cloudy with Rain 57 13.9 56 13.3 96 96 ESE 14 22 29.94 1014 3 5 0.08 2.03
5:15 pm 17:15 Cloudy with Mist and Fog 58 14.2 56 13.6 96 96 SE 13 20 29.94 1014 3 5 0.01 0.25
5:35 pm 17:35 Cloudy with Mist and Fog 58 14.5 57 13.9 96 96 ESE 14 22 29.91 1013 5 8 0.01 0.25
5:55 pm 17:55 Cloudy with Mist and Fog 58 14.5 57 14 97 97 ESE 15 24 29.91 1013 5 8 0.01 0.25
6:15 pm 18:15 Cloudy with Mist and Fog 58 14.6 57 14.1 97 97 ESE 14 22 29.91 1013 4 6 N/A
6:35 pm 18:35 Cloudy with Mist and Fog 58 14.7 57 14.1 96 96 ESE 9 15 29.91 1013 4 6 N/A
6:55 pm 18:55 Cloudy with Mist and Fog 59 14.8 58 14.2 96 96 E 16 26 29.88 1012 4 6 0.00 0.00
7:15 pm 19:15 Cloudy with Mist and Fog 59 15 58 14.5 97 97 ESE 14 22 29.91 1013 5 8 N/A
7:35 pm 19:35 Cloudy with Mist and Fog 59 15.1 58 14.5 96 96 E 12 19 29.88 1012 5 8 N/A
7:55 pm 19:55 Cloudy 59 15.2 58 14.6 96 96 ESE 12 19 29.88 1012 7 11 N/A
8:15 pm 20:15 Cloudy with Mist and Fog 60 15.3 58 14.7 96 96 ESE 9 15 29.91 1013 5 8 N/A
8:35 pm 20:35 Cloudy 60 15.7 59 15.1 96 96 ESE 10 17 29.85 1011 7 11 N/A
8:55 pm 20:55 Cloudy 61 16 60 15.3 96 96 ESE 12 19 29.85 1011 7 11 N/A
9:15 pm 21:15 Cloudy 61 16.1 60 15.5 96 96 SE 10 17 29.85 1011 7 11 N/A
9:35 pm 21:35 Cloudy 61 16.3 60 15.6 96 96 SE 13 20 29.85 1011 7 11 N/A
9:55 pm 21:55 Cloudy 61 16.2 60 15.5 96 96 SE 12 19 29.85 1011 7 11 N/A
10:15 pm 22:15 Cloudy 60 15.8 59 15.1 96 96 SE 9 15 29.85 1011 7 11 N/A
10:35 pm 22:35 Mostly Cloudy 60 15.6 59 15 96 96 SSE 9 15 29.85 1011 7 11 N/A
10:55 pm 22:55 Mostly Cloudy with Mist and Fog 60 15.5 59 14.8 96 96 SE 9 15 29.85 1011 5 8 N/A
11:15 pm 23:15 Cloudy 60 15.5 58 14.7 95 95 SE 9 15 29.85 1011 7 11 N/A
11:35 pm 23:35 Cloudy 60 15.4 58 14.7 96 96 SSE 10 17 29.88 1012 10 16 N/A
11:55 pm 23:55 Cloudy 60 15.5 58 14.6 94 94 SSE 13 20 29.85 1011 10 16 N/A

Powered by AerisWeather